Weather History for KAQP - March, 2013

Change the Weather History Date:

Wednesday, March 6, 2013

  Actual Average Record
Temperature  
Mean Temperature 22 °F -  
Max Temperature 24 °F 25 °F 62 °F (2005)
Min Temperature 19 °F 10 °F -7 °F (1997)
Degree Days  
Heating Degree Days 44    
Moisture  
Dew Point 16 °F    
Average Humidity 82    
Maximum Humidity 93    
Minimum Humidity 69    
Precipitation  
Precipitation 0.06 in - - ()
Sea Level Pressure  
Sea Level Pressure 30.37 in    
Wind  
Wind Speed 7 mph (NNW)    
Max Wind Speed 10 mph    
Max Gust Speed -    
Visibility 9 miles    
Events Snow    
Averages and records for this station are not official NWS values.
T = Trace of Precipitation, MM = Missing Value Source: NWS Daily Summary

Daily Weather History Graph

Daily Weather History Graph

Search for Another Location

Airport or City:

Trip Planner

Search our weather history database for the weather conditions in past years. The results will help you decide how hot, cold, wet, or windy it might be!

Date:

Astronomy

Mar. 06, 2013 Rise Set
Actual Time 6:52 AM CST 6:18 PM CST
Civil Twilight 6:23 AM CST 6:47 PM CST
Nautical Twilight 5:49 AM CST 7:22 PM CST
Astronomical Twilight 5:14 AM CST 7:56 PM CST
Moon 3:14 AM CST (3/6) 12:50 PM CST (3/6)
Length of Visible Light 12h 24m
Length of Day
11h 25m
Waning Crescent, 29% of the Moon is Illuminated
Mar 6
Waning Crescent
Mar 11
New
Mar 19
First Quarter
Mar 27
Full
Apr 2
Last Quarter

Hourly Weather History & Observations

Time (CST) Temp. Windchill Dew Point Humidity Pressure Visibility Wind Dir Wind Speed Gust Speed Precip Events Conditions
12:13 AM 21.2 °F 10.1 °F 17.6 °F 86% 30.37 in 10.0 mi NW 10.4 mph - N/A   Overcast
12:34 AM 19.4 °F 8.6 °F 17.6 °F 93% 30.38 in 10.0 mi NW 9.2 mph - N/A   Overcast
12:53 AM 19.4 °F 8.6 °F 17.6 °F 93% 30.38 in 10.0 mi NW 9.2 mph - N/A   Overcast
1:13 AM 19.4 °F 7.9 °F 17.6 °F 93% 30.38 in 10.0 mi NW 10.4 mph - N/A   Overcast
1:33 AM 19.4 °F 8.6 °F 15.8 °F 86% 30.39 in 10.0 mi NW 9.2 mph - N/A   Overcast
1:53 AM 19.4 °F 7.9 °F 17.6 °F 93% 30.39 in 10.0 mi NW 10.4 mph - N/A   Overcast
2:13 AM 19.4 °F 7.9 °F 17.6 °F 93% 30.39 in 10.0 mi WNW 10.4 mph - N/A   Overcast
2:33 AM 19.4 °F 9.5 °F 17.6 °F 93% 30.39 in 10.0 mi WNW 8.1 mph - N/A   Overcast
2:53 AM 19.4 °F 8.6 °F 17.6 °F 93% 30.38 in 10.0 mi NW 9.2 mph - N/A   Overcast
3:13 AM 19.4 °F 8.6 °F 17.6 °F 93% 30.39 in 10.0 mi NW 9.2 mph - N/A   Overcast
3:53 AM 19.4 °F 9.5 °F 17.6 °F 93% 30.39 in 10.0 mi NW 8.1 mph - N/A   Overcast
4:13 AM 19.4 °F 9.5 °F 17.6 °F 93% 30.39 in 10.0 mi NW 8.1 mph - N/A   Overcast
4:33 AM 19.4 °F 9.5 °F 17.6 °F 93% 30.40 in 10.0 mi NW 8.1 mph - N/A   Overcast
4:53 AM 19.4 °F 9.5 °F 17.6 °F 93% 30.40 in 10.0 mi NW 8.1 mph - N/A   Overcast
6:13 AM 19.4 °F 10.4 °F 15.8 °F 86% 30.41 in 10.0 mi NW 6.9 mph - N/A   Overcast
6:33 AM 19.4 °F 9.5 °F 15.8 °F 86% 30.42 in 10.0 mi NW 8.1 mph - N/A   Overcast
6:53 AM 19.4 °F 10.4 °F 15.8 °F 86% 30.42 in 10.0 mi NW 6.9 mph - N/A   Overcast
7:13 AM 19.4 °F 10.4 °F 15.8 °F 86% 30.42 in 10.0 mi NW 6.9 mph - N/A   Overcast
7:33 AM 19.4 °F 9.5 °F 15.8 °F 86% 30.42 in 10.0 mi NNW 8.1 mph - N/A   Overcast
7:53 AM 19.4 °F 9.5 °F 15.8 °F 86% 30.42 in 10.0 mi NNW 8.1 mph - N/A   Overcast
8:13 AM 19.4 °F 10.4 °F 15.8 °F 86% 30.43 in 10.0 mi NNW 6.9 mph - N/A   Overcast
8:33 AM 21.2 °F 10.1 °F 15.8 °F 80% 30.43 in 10.0 mi North 10.4 mph - N/A   Overcast
8:53 AM 21.2 °F 12.6 °F 15.8 °F 80% 30.43 in 10.0 mi North 6.9 mph - N/A Snow Light Snow
9:13 AM 21.2 °F 11.7 °F 15.8 °F 80% 30.42 in 10.0 mi NNW 8.1 mph - N/A Snow Light Snow
9:34 AM 21.2 °F 13.6 °F 15.8 °F 80% 30.43 in 10.0 mi North 5.8 mph - N/A Snow Light Snow
9:53 AM 21.2 °F 10.9 °F 15.8 °F 80% 30.43 in 7.0 mi NNW 9.2 mph - N/A Snow Light Snow
10:13 AM 21.2 °F 13.6 °F 15.8 °F 80% 30.43 in 7.0 mi North 5.8 mph - N/A Snow Light Snow
10:33 AM 21.2 °F 11.7 °F 15.8 °F 80% 30.42 in 7.0 mi North 8.1 mph - N/A Snow Light Snow
10:53 AM 21.2 °F 12.6 °F 15.8 °F 80% 30.42 in 4.0 mi North 6.9 mph - N/A Snow Light Snow
11:14 AM 23.0 °F 15.8 °F 15.8 °F 74% 30.41 in 10.0 mi NNW 5.8 mph - N/A Snow Light Snow
11:33 AM 24.8 °F - 15.8 °F 69% 30.41 in 5.0 mi Calm Calm - N/A Snow Light Snow
11:53 AM 24.8 °F 20.5 °F 15.8 °F 69% 30.40 in 5.0 mi NNW 3.5 mph - N/A Snow Light Snow
12:13 PM 24.8 °F - 15.8 °F 69% 30.40 in 10.0 mi Calm Calm - N/A   Overcast
12:33 PM 24.8 °F - 15.8 °F 69% 30.40 in 10.0 mi Calm Calm - N/A Snow Light Snow
12:53 PM 24.8 °F - 15.8 °F 69% 30.39 in 10.0 mi Calm Calm - 0.03 in Snow Light Snow
1:13 PM 24.8 °F - 15.8 °F 69% 30.39 in 10.0 mi Calm Calm - 0.03 in Snow Light Snow
1:33 PM 24.8 °F - 15.8 °F 69% 30.38 in 7.0 mi Calm Calm - 0.03 in Snow Light Snow
1:53 PM 24.8 °F 20.5 °F 15.8 °F 69% 30.37 in 7.0 mi NW 3.5 mph - 0.03 in Snow Light Snow
2:14 PM 24.8 °F - 15.8 °F 69% 30.37 in 7.0 mi Calm Calm - N/A Snow Light Snow
2:33 PM 24.8 °F - 15.8 °F 69% 30.36 in 10.0 mi Calm Calm - N/A   Overcast
2:53 PM 24.8 °F 20.5 °F 15.8 °F 69% 30.35 in 10.0 mi NE 3.5 mph - N/A   Overcast
3:13 PM 23.0 °F - 15.8 °F 74% 30.35 in 10.0 mi Calm Calm - N/A   Overcast
3:33 PM 24.8 °F - 15.8 °F 69% 30.35 in 10.0 mi Calm Calm - N/A   Overcast
3:53 PM 23.0 °F 18.4 °F 15.8 °F 74% 30.35 in 10.0 mi SE 3.5 mph - N/A   Overcast
4:13 PM 23.0 °F 17.0 °F 15.8 °F 74% 30.35 in 10.0 mi South 4.6 mph - N/A   Overcast
4:33 PM 21.2 °F - 15.8 °F 80% 30.35 in 7.0 mi Calm Calm - N/A Snow Light Snow
4:53 PM 21.2 °F - 15.8 °F 80% 30.34 in 7.0 mi Calm Calm - N/A Snow Light Snow
5:13 PM 21.2 °F 13.6 °F 15.8 °F 80% 30.34 in 10.0 mi South 5.8 mph - N/A Snow Light Snow
5:33 PM 21.2 °F 16.4 °F 15.8 °F 80% 30.33 in 10.0 mi East 3.5 mph - N/A Snow Light Snow
5:54 PM 21.2 °F 13.6 °F 15.8 °F 80% 30.32 in 10.0 mi East 5.8 mph - N/A   Overcast
6:13 PM 21.2 °F 16.4 °F 15.8 °F 80% 30.32 in 10.0 mi ESE 3.5 mph - N/A Snow Light Snow
6:33 PM 19.4 °F 14.3 °F 15.8 °F 86% 30.32 in 10.0 mi SE 3.5 mph - N/A   Overcast
6:53 PM 19.4 °F - 15.8 °F 86% 30.33 in 10.0 mi Calm Calm - N/A Snow Light Snow
7:13 PM 19.4 °F 11.5 °F 15.8 °F 86% 30.32 in 10.0 mi East 5.8 mph - N/A Snow Light Snow
7:34 PM 19.4 °F 11.5 °F 15.8 °F 86% 30.31 in 10.0 mi ESE 5.8 mph - N/A   Overcast
7:53 PM 19.4 °F 11.5 °F 15.8 °F 86% 30.31 in 10.0 mi SE 5.8 mph - N/A   Overcast
8:13 PM 19.4 °F 10.4 °F 15.8 °F 86% 30.31 in 10.0 mi ESE 6.9 mph - N/A   Overcast
8:33 PM 19.4 °F 9.5 °F 15.8 °F 86% 30.31 in 10.0 mi SSE 8.1 mph - N/A   Overcast
8:53 PM 19.4 °F 8.6 °F 15.8 °F 86% 30.32 in 10.0 mi SE 9.2 mph - N/A   Overcast
9:13 PM 19.4 °F 11.5 °F 15.8 °F 86% 30.32 in 10.0 mi SSE 5.8 mph - N/A   Overcast
9:33 PM 19.4 °F 11.5 °F 15.8 °F 86% 30.32 in 10.0 mi SSE 5.8 mph - N/A   Overcast
9:53 PM 21.2 °F 12.6 °F 15.8 °F 80% 30.33 in 10.0 mi SSE 6.9 mph - N/A   Overcast
10:14 PM 21.2 °F 13.6 °F 15.8 °F 80% 30.33 in 10.0 mi SE 5.8 mph - N/A   Overcast
10:33 PM 21.2 °F 12.6 °F 17.6 °F 86% 30.32 in 10.0 mi SE 6.9 mph - N/A   Overcast
10:53 PM 21.2 °F 14.9 °F 17.6 °F 86% 30.33 in 10.0 mi SE 4.6 mph - N/A   Overcast
11:13 PM 21.2 °F 12.6 °F 17.6 °F 86% 30.33 in 10.0 mi SSE 6.9 mph - N/A   Overcast
11:33 PM 19.4 °F 8.6 °F 15.8 °F 86% 30.32 in 10.0 mi SSE 9.2 mph - N/A   Overcast
11:53 PM 19.4 °F 9.5 °F 15.8 °F 86% 30.31 in 10.0 mi SSE 8.1 mph - N/A   Overcast